Location: Newark
(45.5167°N, 11.1667°E)
Time: 21:35:32
(UTC+00:00)

Altair - Visible Passes

Search period start: 09 December 2019 00:00
Search period end: 19 December 2019 00:00
Orbit: 1502 x 1682 km, 47.2° (Epoch: 08 December)

Date Brightness Start Highest point End Pass type
(mag) Time Alt. Az. Time Alt. Az. Time Alt. Az.
09 Dec 8.7 02:09:38 28° SE 02:09:38 28° SE 02:13:22 10° SE visible
09 Dec 8.2 04:07:41 29° SW 04:07:50 29° SW 04:15:23 10° S visible
09 Dec 9.0 19:17:13 10° SSW 19:20:11 20° S 19:20:11 20° S visible
10 Dec 9.2 01:46:15 19° ESE 01:46:15 19° ESE 01:48:15 10° ESE visible
10 Dec 8.3 03:44:19 30° SSW 03:44:19 30° SSW 03:50:36 10° SSE visible
10 Dec 8.7 18:52:21 10° SSW 18:56:52 25° S 18:56:52 25° S visible
10 Dec 9.6 20:54:44 10° WSW 20:54:55 11° WSW 20:54:55 11° WSW visible
11 Dec 9.6 01:22:55 11° ESE 01:22:55 11° ESE 01:23:08 10° ESE visible
11 Dec 8.5 03:20:58 28° S 03:20:58 28° S 03:25:45 10° SSE visible
11 Dec 8.5 18:27:31 10° S 18:33:31 28° SSE 18:33:31 28° SSE visible
11 Dec 9.3 20:29:35 10° SW 20:31:35 18° SW 20:31:35 18° SW visible
12 Dec 8.8 02:57:38 22° S 02:57:38 22° S 03:00:53 10° SSE visible
12 Dec 8.4 18:02:43 10° S 18:10:09 27° SE 18:10:09 27° SE visible
12 Dec 8.8 20:04:27 10° SW 20:08:12 27° SW 20:08:12 27° SW visible
13 Dec 9.2 02:34:20 16° SSE 02:34:20 16° SSE 02:35:59 10° SSE visible
13 Dec 8.4 17:37:58 10° S 17:45:19 25° SE 17:46:44 24° ESE visible
13 Dec 8.3 19:39:19 10° SW 19:44:47 38° SW 19:44:47 38° SW visible
14 Dec 9.5 02:11:02 10° SSE 02:11:02 10° SSE 02:11:03 10° SSE visible
14 Dec 8.6 17:13:16 10° S 17:20:17 23° SE 17:23:17 20° ESE visible
14 Dec 7.9 19:14:13 10° SW 19:21:20 50° SSW 19:21:20 50° SSW visible
14 Dec 9.6 21:18:45 10° W 21:19:23 12° W 21:19:23 12° W visible
15 Dec 8.8 16:48:38 10° S 16:55:15 21° SE 16:59:48 15° E visible
15 Dec 7.6 18:49:07 10° SW 18:57:50 58° SSE 18:57:50 58° SSE visible
15 Dec 9.2 20:53:31 10° W 20:55:53 20° W 20:55:53 20° W visible
16 Dec 8.9 16:24:04 10° SSE 16:30:13 19° SE 16:36:15 10° E visible
16 Dec 7.5 18:24:02 10° SW 18:33:26 56° SE 18:34:18 54° SE visible
16 Dec 8.8 20:28:17 10° WSW 20:32:20 29° W 20:32:20 29° W visible
17 Dec 9.0 15:59:35 10° SSE 16:05:12 17° SE 16:10:43 10° E visible
17 Dec 7.7 17:58:58 10° SW 18:08:20 52° SE 18:10:44 44° ESE visible
17 Dec 8.3 20:03:03 10° WSW 20:08:45 41° WSW 20:08:45 41° WSW visible
18 Dec 7.8 17:33:56 10° SSW 17:43:13 49° SE 17:47:07 33° E visible
18 Dec 7.8 19:37:50 10° WSW 19:45:09 57° WSW 19:45:09 57° WSW visible
18 Dec 9.7 21:43:05 10° W 21:43:11 10° W 21:43:11 10° W visible
